Weather History for Falls City, NE

Change the Weather History Date:

Sunday, April 7, 2013

  Actual Average Record
Temperature  
Mean Temperature 58 °F -  
Max Temperature 78 °F 66 °F 86 °F (1991)
Min Temperature 42 °F 38 °F 18 °F (2007)
Degree Days  
Heating Degree Days 6    
Growing Degree Days 8 (Base 50)    
Moisture  
Dew Point 44 °F    
Average Humidity 64    
Maximum Humidity 100    
Minimum Humidity 26    
Precipitation  
Precipitation 0.62 in - - ()
Sea Level Pressure  
Sea Level Pressure 29.74 in    
Wind  
Wind Speed 6 mph (SSE)    
Max Wind Speed 18 mph    
Max Gust Speed 33 mph    
Visibility 9 miles    
Events Rain , Thunderstorm    
Averages and records for this station are not official NWS values.
T = Trace of Precipitation, MM = Missing Value Source: NWS Daily Summary

Daily Weather History Graph

Daily Weather History Graph

Search for Another Location

Airport:

Trip Planner

Search our weather history database for the weather conditions in past years. The results will help you decide how hot, cold, wet, or windy it might be!

Date:

Astronomy

Apr. 07, 2013 Rise Set
Actual Time 6:56 AM CDT 7:53 PM CDT
Civil Twilight 6:28 AM CDT 8:20 PM CDT
Nautical Twilight 5:55 AM CDT 8:53 PM CDT
Astronomical Twilight 5:21 AM CDT 9:27 PM CDT
Moon 5:14 AM CDT (4/7) 5:26 PM CDT (4/7)
Length of Visible Light 13h 52m
Length of Day
12h 56m
Waning Crescent, 8% of the Moon is Illuminated
Apr 7
Waning Crescent
Apr 10
New
Apr 18
First Quarter
Apr 25
Full
May 2
Last Quarter

Hourly Weather History & Observations

Time (CDT) Temp. Windchill Dew Point Humidity Pressure Visibility Wind Dir Wind Speed Gust Speed Precip Events Conditions
12:53 AM 48.9 °F - 37.9 °F 66% 29.80 in 10.0 mi Calm Calm - N/A   Clear
1:53 AM 48.9 °F - 37.9 °F 66% 29.81 in 10.0 mi Calm Calm - N/A   Clear
2:53 AM 46.9 °F - 37.0 °F 68% 29.80 in 10.0 mi Calm Calm - N/A   Clear
3:53 AM 46.0 °F - 37.0 °F 71% 29.80 in 10.0 mi Calm Calm - N/A   Clear
4:53 AM 42.1 °F - 36.0 °F 79% 29.81 in 10.0 mi Calm Calm - N/A   Clear
5:53 AM 43.0 °F - 36.0 °F 76% 29.82 in 10.0 mi Calm Calm - N/A   Clear
6:53 AM 46.0 °F - 37.0 °F 71% 29.83 in 10.0 mi Calm Calm - N/A   Clear
7:53 AM 42.1 °F 40.2 °F 36.0 °F 79% 29.85 in 10.0 mi ESE 3.5 mph - N/A   Clear
8:53 AM 50.0 °F - 41.0 °F 71% 29.85 in 10.0 mi SE 3.5 mph - N/A   Clear
9:53 AM 57.0 °F - 43.0 °F 59% 29.85 in 10.0 mi SSE 5.8 mph - N/A   Clear
10:53 AM 64.0 °F - 44.1 °F 48% 29.83 in 10.0 mi ESE 6.9 mph - N/A   Clear
11:53 AM 70.0 °F - 42.1 °F 36% 29.82 in 10.0 mi South 11.5 mph - N/A   Clear
12:53 PM 73.0 °F - 39.9 °F 30% 29.79 in 10.0 mi SSE 10.4 mph 20.7 mph N/A   Clear
1:53 PM 75.9 °F - 39.0 °F 26% 29.76 in 10.0 mi SSE 17.3 mph 25.3 mph N/A   Clear
2:53 PM 75.0 °F - 39.0 °F 27% 29.73 in 10.0 mi South 13.8 mph 26.5 mph N/A   Clear
3:53 PM 73.9 °F - 37.9 °F 27% 29.71 in 10.0 mi South 18.4 mph 33.4 mph N/A   Scattered Clouds
4:53 PM 71.1 °F - 39.9 °F 32% 29.70 in 10.0 mi SSE 15.0 mph - N/A   Overcast
5:53 PM 73.9 °F - 41.0 °F 30% 29.65 in 10.0 mi SE 16.1 mph 24.2 mph N/A   Clear
6:53 PM 71.1 °F - 41.0 °F 34% 29.65 in 10.0 mi SSE 13.8 mph - N/A   Clear
7:53 PM 66.0 °F - 45.0 °F 47% 29.64 in 10.0 mi SSE 13.8 mph 21.9 mph 0.00 in Rain Light Rain
8:07 PM 64.4 °F - 48.2 °F 56% 29.66 in 10.0 mi South 15.0 mph 28.8 mph 0.00 in Rain , Thunderstorm Light Rain
8:53 PM 60.1 °F - 51.1 °F 72% 29.68 in 10.0 mi South 15.0 mph - 0.10 in Rain , Thunderstorm Rain
9:04 PM 59.0 °F - 51.8 °F 77% 29.67 in 5.0 mi South 10.4 mph 20.7 mph 0.05 in Rain , Thunderstorm Heavy Rain
9:23 PM 57.2 °F - 53.6 °F 88% 29.68 in 5.0 mi SSE 11.5 mph 21.9 mph 0.13 in Rain , Thunderstorm Heavy Rain
9:36 PM 57.2 °F - 53.6 °F 88% 29.67 in - SE 13.8 mph - 0.15 in Thunderstorm Thunderstorm
9:53 PM 57.0 °F - 55.0 °F 93% 29.68 in 9.0 mi SSE 13.8 mph - 0.17 in Rain , Thunderstorm Light Rain
10:30 PM 55.4 °F - 55.4 °F 100% 29.68 in 4.0 mi ESE 11.5 mph - 0.11 in Rain Rain
10:37 PM 57.2 °F - 53.6 °F 88% 29.70 in 8.0 mi SE 10.4 mph - 0.12 in Rain , Thunderstorm Rain
10:53 PM 55.9 °F - 55.9 °F 100% 29.73 in 3.0 mi SSW 10.4 mph - 0.23 in Rain , Thunderstorm Heavy Thunderstorms and Rain
11:27 PM 55.4 °F - 53.6 °F 94% 29.70 in 7.0 mi SE 10.4 mph 17.3 mph 0.12 in Rain Rain
11:53 PM 53.1 °F - 52.0 °F 96% 29.69 in 10.0 mi ESE 15.0 mph 24.2 mph 0.12 in   Mostly Cloudy